Flag for Canada Weather past 2 weeks in Rankin Inlet, Nunavut Territory, Canada

Now
-22 °F

Clear.


Feels Like: -48 °F
Forecast: -30 / -16 °F
Wind: 15 mph from Northwest

Location: Rankin Inlet

Current Time: Apr 2, 2015 at 12:05:08 AM

Latest Report: Apr 1, 2015 at 11:00 PM


Visibility: 15 mi

Pressure: 30.05 "Hg

Humidity: 68%

Dew point: -29 °F

Location of Rankin InletLocation

Historic Weather in Rankin Inlet — Graph

°F

Rankin Inlet temperature yesterday

Maximum temperature yesterday: -9 °F (at 4:00 PM)
Minimum temperature yesterday: -26 °F (at 4:00 AM)
Average temperature yesterday: -19 °F

Past Weeks' High & Low Weather Summary

 TemperatureHumidityPressure
High10 °F (Mar 27, 1:00 PM)85% (Mar 27, 3:00 PM)30.35 "Hg (Mar 27, 3:00 PM)
Low-27 °F (Mar 30, 6:00 AM)61% (Mar 30, 9:00 AM)29.45 "Hg (Mar 17, 11:00 PM)
Average-13 °F73%29.98 "Hg
* Reported Mar 17 11:00 PM — Apr 1 11:00 PM, Rankin Inlet, Weather by CustomWeather, © 2015

Note: Actual official high and low records may vary slightly from our data, if they occured in-between our weather recording intervals... More about our weather records

Advertising

Rankin Inlet weather history for previous 24 hours

 ConditionsComfort  
Time TempWeatherWind HumidityBarometerVisibility
11:00 PM
Wed, Apr 1
-22 °FClear.15 mph68%30.05 "Hg15 mi
10:00 PM-20 °FClear.12 mph68%30.05 "Hg15 mi
9:00 PM-17 °FPassing clouds.13 mph69%30.06 "Hg15 mi
8:00 PM-15 °FPassing clouds.12 mph69%30.05 "Hg15 mi
7:00 PM-11 °FSunny.12 mph70%30.04 "Hg15 mi
6:00 PM-9 °FSunny.13 mph70%30.04 "Hg15 mi
5:00 PM-9 °FSunny.12 mph70%30.04 "Hg15 mi
4:00 PM-9 °FSunny.10 mph70%30.04 "Hg15 mi
3:00 PM-11 °FSunny.7 mph76%30.05 "Hg15 mi
2:00 PM-13 °FSunny.7 mph69%30.04 "Hg15 mi
1:00 PM-15 °FSunny.7 mph69%30.04 "Hg15 mi
12:00 PM-17 °FSunny.5 mph63%30.05 "Hg15 mi
11:00 AM-20 °FSunny.6 mph68%30.05 "Hg15 mi
10:00 AM-22 °FSunny.5 mph68%30.04 "Hg15 mi
9:00 AM-24 °FSunny.10 mph68%30.04 "Hg15 mi
8:00 AM-26 °FSunny.8 mph67%30.04 "Hg15 mi
7:00 AM-26 °FClear.8 mph67%30.04 "Hg15 mi
6:00 AM-26 °FPassing clouds.10 mph67%30.03 "Hg15 mi
5:00 AM-26 °FClear.10 mph67%30.03 "Hg15 mi
4:00 AM-26 °FClear.12 mph67%30.03 "Hg15 mi
3:00 AM-24 °FClear.14 mph68%30.02 "Hg15 mi
2:00 AM-24 °FClear.9 mph75%30.02 "Hg15 mi
1:00 AM-22 °FClear.15 mph68%30.01 "Hg15 mi
12:00 AM-22 °FClear.7 mph68%30.00 "Hg15 mi
Weather by CustomWeather, © 2015

See weather overviewHow to use our weather pages